Location: Joplin, MO
(37.0842°N, 94.5133°W)
Time: 19:26:23
(UTC+02:00)

Transit 2A Rocket - Pass Details

Date: 01 April 2023
Orbit: 584 x 914 km, 66.7° (Epoch: 09 June)

Event Time Altitude Azimuth Distance (km) Brightness Sun altitude
Rises 02:25:13 0° 338° (NNW) 3,552 8.8 2.0°
Reaches altitude 10° 02:27:57 10° 346° (NNW) 2,597 8.0 1.5°
Maximum altitude 02:33:38 41° 55° (NE) 1,267 5.9 0.3°
Drops below altitude 10° 02:39:02 10° 125° (SE) 2,460 7.1 -0.7°
Sets 02:41:33 0° 132° (SE) 3,344 7.8 -1.2°
